FLOCK 3P-52

Last updated on Wed Feb 14 2018 16:20:32 GMT+0000 (Coordinated Universal Time)

1 42030U 17008CL 18045.14986970 .00001239 00000-0 54217-4 0 9995 2 42030 97.4662 110.7465 0009763 85.8562 274.3790 15.23925827 55318

Satellite not in orbit

FLOCK 3P-52